Location: Dal�� Lhota
(48.7500°N, 14.0167°E)
Time: 02:39:58
(UTC+00:00)

Cosmos 2195 Rocket - Pass Details

Date: 24 September 2020
Orbit: 948 x 994 km, 82.9° (Epoch: 29 October)

Event Time Altitude Azimuth Distance (km) Brightness Sun altitude
Rises 18:45:38 0° 350° (N) 3,693 8.0 -18.4°
Reaches altitude 10° 18:48:10 10° 351° (N) 2,734 7.2 -18.8°
Maximum altitude 18:54:27 90° 72° (ENE) 974 4.4 -19.8°
Enters shadow 19:00:08 13° 173° (S) 2,504 6.4 -20.6°
